Istanbul, Turkey

10:10 PM +03 on April 27, 2017 (GMT +0300)
Ataturk

Weather History for LTBA - May, 2011

Change the Weather History Date:

Monday, May 16, 2011

  Actual Average Record
Temperature  
Mean Temperature 67 °F -  
Max Temperature 80 °F 73 °F 82 °F (2015)
Min Temperature 54 °F 59 °F 50 °F (2001)
Cooling Degree Days 2    
Growing Degree Days 17 (Base 50)    
Moisture  
Dew Point 47 °F    
Average Humidity 47    
Maximum Humidity 82    
Minimum Humidity 22    
Precipitation  
Precipitation 0.00 in - - ()
Sea Level Pressure  
Sea Level Pressure 29.99 in    
Wind  
Wind Speed 3 mph ()    
Max Wind Speed 7 mph    
Max Gust Speed -    
Visibility 5.2 miles    
Events      
Averages and records for this station are not official NWS values.
T = Trace of Precipitation, MM = Missing Value Source: Averaged Metar Reports

Daily Weather History Graph

Daily Weather History Graph

Search for Another Location

Airport or City:

Trip Planner

Search our weather history database for the weather conditions in past years. The results will help you decide how hot, cold, wet, or windy it might be!

Date:

Astronomy

May. 16, 2011 Rise Set
Actual Time 5:46 AM EEST 8:16 PM EEST
Civil Twilight 5:15 AM EEST 8:47 PM EEST
Nautical Twilight 4:36 AM EEST 9:26 PM EEST
Astronomical Twilight 3:53 AM EEST 10:10 PM EEST
Moon 7:25 PM EEST (5/16) 4:36 AM EEST (5/16)
Length of Visible Light 15h 32m
Length of Day
14h 29m
Waxing Gibbous, 98% of the Moon is Illuminated
May 16
Waxing Gibbous
May 17
Full
May 24
Last Quarter
Jun 2
New
Jun 9
First Quarter

Hourly Weather History & Observations

Time (EEST) Temp. Dew Point Humidity Pressure Visibility Wind Dir Wind Speed Gust Speed Precip Events Conditions
12:20 AM 69.8 °F 46.4 °F 43% 30.01 in - Variable 5.8 mph - N/A   Clear
12:50 AM 64.4 °F 48.2 °F 56% 30.01 in - Variable 2.3 mph - N/A   Clear
1:20 AM 62.6 °F 48.2 °F 59% 29.98 in - East 2.3 mph - N/A   Clear
1:50 AM 60.8 °F 48.2 °F 63% 29.98 in - Calm Calm - N/A   Clear
2:20 AM 59.0 °F 48.2 °F 67% 29.98 in - NNW 1.2 mph - N/A   Clear
2:50 AM 59.0 °F 48.2 °F 67% 29.98 in - Calm Calm - N/A   Clear
3:00 AM 58 °F 48 °F 60% 29.99 in 6 mi Calm Calm - -  
3:20 AM 59.0 °F 50.0 °F 72% 29.98 in - WSW 4.6 mph - N/A   Clear
3:50 AM 55.4 °F 48.2 °F 77% 29.98 in - WNW 2.3 mph - N/A   Clear
4:20 AM 55.4 °F 50.0 °F 82% 29.98 in - Calm Calm - N/A   Clear
4:50 AM 55.4 °F 48.2 °F 77% 29.98 in - North 2.3 mph - N/A   Clear
5:20 AM 55.4 °F 48.2 °F 77% 29.98 in - Calm Calm - N/A   Clear
5:50 AM 59.0 °F 48.2 °F 67% 29.98 in - Variable 1.2 mph - N/A   Clear
6:20 AM 59.0 °F 50.0 °F 72% 29.98 in 3.7 mi Variable 2.3 mph - N/A   Unknown
6:50 AM 59.0 °F 50.0 °F 72% 29.98 in 3.7 mi Variable 2.3 mph - N/A   Unknown
7:20 AM 60.8 °F 51.8 °F 72% 30.01 in - Variable 2.3 mph - N/A   Clear
7:50 AM 64.4 °F 51.8 °F 64% 30.01 in - Variable 2.3 mph - N/A   Clear
8:20 AM 64.4 °F 50.0 °F 59% 30.01 in - SE 3.5 mph - N/A   Clear
8:50 AM 66.2 °F 50.0 °F 56% 30.01 in - SE 4.6 mph - N/A   Clear
9:00 AM 66 °F 50 °F 46% 30.01 in 6 mi SE 4.6 mph - -  
9:20 AM 68.0 °F 50.0 °F 52% 30.01 in - SE 5.8 mph - N/A   Clear
9:50 AM 68.0 °F 48.2 °F 49% 30.01 in - ESE 5.8 mph - N/A   Clear
10:20 AM 68.0 °F 48.2 °F 49% 30.01 in - East 4.6 mph - N/A   Clear
10:50 AM 71.6 °F 50.0 °F 46% 30.01 in - ESE 4.6 mph - N/A   Clear
11:20 AM 71.6 °F 48.2 °F 43% 30.01 in - SSW 3.5 mph - N/A   Clear
11:50 AM 71.6 °F 48.2 °F 43% 30.01 in - South 4.6 mph - N/A   Clear
12:20 PM 71.6 °F 46.4 °F 41% 30.01 in - South 4.6 mph - N/A   Clear
12:50 PM 73.4 °F 46.4 °F 38% 30.01 in - South 5.8 mph - N/A   Clear
1:20 PM 75.2 °F 48.2 °F 38% 30.01 in - South 4.6 mph - N/A   Clear
1:50 PM 75.2 °F 48.2 °F 38% 30.01 in - South 6.9 mph - N/A   Clear
2:20 PM 75.2 °F 48.2 °F 38% 30.01 in - South 5.8 mph - N/A   Clear
2:50 PM 75.2 °F 48.2 °F 38% 29.98 in - SSW 5.8 mph - N/A   Clear
3:00 PM 76 °F 46 °F 24% 30.00 in 6 mi SSW 5.8 mph - -  
3:20 PM 77.0 °F 39.2 °F 26% 29.98 in - SW 4.6 mph - N/A   Clear
3:50 PM 78.8 °F 39.2 °F 24% 29.98 in - SW 3.5 mph - N/A   Clear
4:20 PM 78.8 °F 41.0 °F 26% 29.98 in - WSW 4.6 mph - N/A   Clear
4:50 PM 78.8 °F 42.8 °F 28% 29.98 in - SSW 4.6 mph - N/A   Clear
5:20 PM 78.8 °F 42.8 °F 28% 29.95 in - South 4.6 mph - N/A   Clear
5:50 PM 77.0 °F 50.0 °F 39% 29.95 in - South 4.6 mph - N/A   Clear
6:20 PM 75.2 °F 46.4 °F 36% 29.95 in - SSE 5.8 mph - N/A   Clear
6:50 PM 73.4 °F 44.6 °F 36% 29.95 in - SSE 5.8 mph - N/A   Clear
7:20 PM 75.2 °F 41.0 °F 29% 29.95 in - SE 4.6 mph - N/A   Clear
7:50 PM 73.4 °F 41.0 °F 31% 29.95 in - ESE 4.6 mph - N/A   Clear
8:20 PM 71.6 °F 44.6 °F 38% 29.95 in - East 3.5 mph - N/A   Clear
8:50 PM 71.6 °F 42.8 °F 35% 29.95 in - Variable 2.3 mph - N/A   Clear
9:00 PM 72 °F 42 °F 22% 29.96 in 6 mi East 2.3 mph - -  
9:20 PM 73.4 °F 41.0 °F 31% 29.95 in - ENE 4.6 mph - N/A   Clear
9:50 PM 71.6 °F 41.0 °F 33% 29.98 in - East 3.5 mph - N/A   Clear
10:20 PM 73.4 °F 41.0 °F 31% 29.98 in - NNE 3.5 mph - N/A   Clear
11:20 PM 71.6 °F 41.0 °F 33% 29.98 in - Variable 2.3 mph - N/A   Clear
11:50 PM 68.0 °F 44.6 °F 43% 29.98 in - Variable 2.3 mph - N/A   Clear